MDT,Max TemperatureF,Mean TemperatureF,Min TemperatureF,Max Dew PointF,MeanDew PointF,Min DewpointF,Max Humidity, Mean Humidity, Min Humidity, Max Sea Level PressureIn, Mean Sea Level PressureIn, Min Sea Level PressureIn, Max VisibilityMiles, Mean VisibilityMiles, Min VisibilityMiles, Max Wind SpeedMPH, Mean Wind SpeedMPH, Max Gust SpeedMPH,PrecipitationIn, CloudCover, Events, WindDirDegrees
2013-3-1,50,35,20,27,19,10,64,49,34,30.39,30.32,30.24,10,10,10,14,3,16,0.00,0,,185
2013-3-2,51,38,25,28,23,18,75,55,34,30.35,30.19,29.92,10,10,10,20,4,22,0.00,0,,227
2013-3-3,51,38,25,27,21,10,75,52,29,29.89,29.71,29.56,10,10,10,25,9,36,0.00,1,,314
2013-3-4,30,23,16,19,14,7,81,66,50,30.35,30.07,29.80,10,10,5,21,7,24,T,4,,116
2013-3-5,37,24,10,16,9,4,76,56,35,30.35,30.23,30.09,10,10,9,12,3,14,0.00,0,,197
2013-3-6,54,37,20,32,17,7,62,44,26,30.06,29.88,29.70,10,10,10,24,5,33,T,2,,189
2013-3-7,44,36,28,30,23,15,85,61,37,29.95,29.91,29.82,10,10,10,15,4,17,0.00,1,,223
2013-3-8,47,40,32,27,25,23,69,57,45,29.91,29.81,29.71,10,10,10,12,6,16,0.00,3,,293
2013-3-9,41,34,26,28,21,14,85,63,40,30.22,29.97,29.78,10,8,2,22,8,25,T,6,Snow,326
2013-3-10,51,36,21,22,14,10,68,45,21,30.27,30.13,29.95,10,10,10,15,5,17,0.00,0,,183
2013-3-11,47,37,27,25,19,9,85,54,22,30.19,30.01,29.92,10,10,10,29,6,37,0.00,3,,322
2013-3-12,51,38,24,25,20,14,85,56,26,30.30,30.19,30.08,10,10,10,15,4,17,0.00,3,,133
2013-3-13,61,45,29,26,23,21,69,46,23,30.22,30.17,30.11,10,10,10,14,5,17,0.00,0,,216
2013-3-14,66,50,34,29,23,19,64,41,18,30.21,30.09,29.97,10,10,10,15,5,17,0.00,0,,244
2013-3-15,68,52,35,23,20,16,45,31,17,29.94,29.87,29.77,10,10,10,22,8,30,0.00,0,,264
2013-3-16,56,45,33,26,19,8,70,46,21,29.90,29.81,29.67,10,10,10,16,8,21,0.00,0,,291
2013-3-17,43,32,21,25,8,-3,59,40,20,29.89,29.61,29.42,10,10,9,54,19,68,T,1,,266
2013-3-18,44,30,16,12,6,0,61,39,17,29.99,29.90,29.81,10,10,10,36,13,45,0.00,0,,258
2013-3-19,48,33,18,16,7,-8,77,44,10,30.25,30.14,29.88,10,10,10,30,5,37,0.00,0,,334
2013-3-20,55,37,18,24,16,8,74,50,26,30.20,29.90,29.64,10,10,10,25,5,30,0.00,1,,322
2013-3-21,49,36,23,29,22,0,75,52,29,29.85,29.65,29.47,10,8,1,25,7,33,T,5,Snow-Thunderstorm,107
2013-3-22,30,24,18,20,16,3,92,66,40,30.06,29.87,29.77,10,5,0,16,6,23,0.31,7,Fog-Snow,41
2013-3-23,23,18,13,16,13,4,92,75,57,30.26,30.10,29.94,10,5,0,12,6,15,0.11,7,Fog-Snow,285
2013-3-24,27,18,8,14,6,-2,73,62,50,30.35,30.24,30.07,10,9,2,16,6,17,T,4,Snow,219
2013-3-25,38,24,10,13,7,0,76,54,32,30.37,30.24,30.09,10,10,10,15,6,16,0.00,0,,228
2013-3-26,49,36,23,22,14,7,62,45,27,30.07,29.97,29.88,10,10,10,12,5,14,0.00,2,,179
2013-3-27,56,41,26,25,21,17,75,50,24,30.04,29.98,29.91,10,10,10,16,6,20,0.00,0,,240
2013-3-28,61,46,30,27,22,20,70,46,21,30.10,30.00,29.93,10,10,10,18,4,22,0.00,1,,205
2013-3-29,65,52,38,28,25,20,59,39,19,30.06,30.00,29.93,10,10,10,25,6,32,0.00,1,,271
2013-3-30,55,43,31,35,30,24,79,56,32,30.19,30.13,30.05,10,10,10,12,5,14,0.00,3,,333
2013-3-31,63,46,28,26,21,15,69,43,17,30.12,29.99,29.92,10,10,10,16,5,22,0.00,0,,72